Location: Caltech
(34.1382°N, 118.1253°W)
Time: 08:44:34
(UTC-07:00)

Gurwin Techsat 1B - Visible Passes

Search period start: 24 May 2016 00:00
Search period end: 03 June 2016 00:00
Orbit: 811 x 815 km, 98.6° (Epoch: 24 May)

Date Brightness Start Highest point End Pass type
(mag) Time Alt. Az. Time Alt. Az. Time Alt. Az.
24 May 8.7 02:49:26 10° NNE 02:54:43 64° ESE 02:55:05 62° SE visible
24 May 10.5 04:31:25 10° NNW 04:34:04 14° WNW 04:36:17 11° W visible
25 May 9.6 02:26:58 10° NNE 02:31:53 37° E 02:32:03 37° ESE visible
25 May 10.0 04:07:28 10° NNW 04:11:34 23° WNW 04:13:16 20° W visible
26 May 10.4 02:04:53 10° NE 02:08:59 22° E 02:09:02 22° E visible
26 May 9.3 03:44:07 10° N 03:48:58 37° WNW 03:50:15 32° W visible
27 May 11.0 01:43:38 10° ENE 01:46:01 13° E 01:46:01 13° E visible
27 May 8.7 03:21:03 10° N 03:26:19 62° WNW 03:27:13 53° WSW visible
28 May 8.5 02:58:13 10° NNE 03:03:35 79° ESE 03:04:12 68° SSE visible
28 May 10.7 04:41:13 10° NW 04:42:47 11° WNW 04:44:21 10° W visible
29 May 9.2 02:35:39 10° NNE 02:40:46 46° E 02:41:10 45° ESE visible
29 May 10.2 04:16:41 10° NNW 04:20:19 19° WNW 04:22:23 15° W visible
30 May 10.0 02:13:23 10° NE 02:17:54 28° E 02:18:08 27° E visible
30 May 9.6 03:53:09 10° N 03:57:45 31° WNW 03:59:20 26° W visible
31 May 10.7 01:51:41 10° NE 01:54:57 16° E 01:55:06 16° E visible
31 May 8.9 03:29:58 10° N 03:35:07 51° WNW 03:36:19 42° WSW visible
01 Jun 8.5 03:07:04 10° NNE 03:12:25 85° WNW 03:13:17 64° SSW visible
02 Jun 8.9 02:44:23 10° NNE 02:49:38 57° E 02:50:14 54° SE visible
02 Jun 10.5 04:26:01 10° NNW 04:29:02 16° WNW 04:31:27 12° W visible
